Time,TemperatureF,DewpointF,PressureIn,WindDirection,WindDirectionDegrees,WindSpeedMPH,WindSpeedGustMPH,Humidity,HourlyPrecipIn,Conditions,Clouds,dailyrainin,SolarRadiationWatts/m^2,SoftwareType,DateUTC
2013-02-06 00:01:00,-3.0,-8.0,-100.00,SE,127,2.0,3.0,77,0.00,,,-99.99,0.000000,,2013-02-06 06:01:00,
2013-02-06 00:32:00,-5.0,-10.0,-100.00,SE,145,1.0,3.0,78,0.00,,,0.01,0.000000,,2013-02-06 06:32:00,
2013-02-06 00:42:00,-5.0,-10.0,-100.00,SE,145,1.0,3.0,78,0.00,,,0.01,0.000000,,2013-02-06 06:42:00,
2013-02-06 00:52:00,-5.0,-10.0,-100.00,SE,145,1.0,3.0,78,0.00,,,0.01,0.000000,,2013-02-06 06:52:00,
2013-02-06 01:01:00,-5.0,-10.0,-100.00,SE,145,1.0,3.0,78,0.00,,,0.01,0.000000,,2013-02-06 07:01:00,
2013-02-06 01:32:00,-7.0,-13.0,-100.00,SE,144,0.0,2.0,76,0.00,,,0.00,0.000000,,2013-02-06 07:32:00,
2013-02-06 01:42:00,-7.0,-13.0,-100.00,SE,144,0.0,2.0,76,0.00,,,0.00,0.000000,,2013-02-06 07:42:00,
2013-02-06 01:52:00,-7.0,-13.0,-100.00,SE,144,0.0,2.0,76,0.00,,,0.00,0.000000,,2013-02-06 07:52:00,
2013-02-06 02:32:00,-2.0,-7.0,-100.00,SW,223,1.0,2.0,80,0.00,,,0.00,0.000000,,2013-02-06 08:32:00,
2013-02-06 02:42:00,-2.0,-7.0,-100.00,SW,223,1.0,2.0,80,0.00,,,0.00,0.000000,,2013-02-06 08:42:00,
2013-02-06 02:53:00,-2.0,-7.0,-100.00,SW,223,1.0,2.0,80,0.00,,,0.00,0.000000,,2013-02-06 08:53:00,
2013-02-06 03:01:00,-2.0,-7.0,-100.00,SW,223,1.0,2.0,80,0.00,,,0.00,0.000000,,2013-02-06 09:01:00,
2013-02-06 03:32:00,3.0,-2.0,-100.00,ESE,105,2.0,2.0,80,0.00,,,0.00,0.000000,,2013-02-06 09:32:00,
2013-02-06 03:42:00,3.0,-2.0,-100.00,ESE,105,2.0,2.0,80,0.00,,,0.00,0.000000,,2013-02-06 09:42:00,
2013-02-06 03:52:00,3.0,-2.0,-100.00,ESE,105,2.0,2.0,80,0.00,,,0.00,0.000000,,2013-02-06 09:52:00,
2013-02-06 04:01:00,3.0,-2.0,-100.00,ESE,105,2.0,2.0,80,0.00,,,0.00,0.000000,,2013-02-06 10:01:00,
2013-02-06 04:32:00,5.0,0.0,-100.00,ESE,122,2.0,4.0,81,0.00,,,0.00,0.000000,,2013-02-06 10:32:00,
2013-02-06 04:42:00,5.0,0.0,-100.00,ESE,122,2.0,4.0,81,0.00,,,0.00,0.000000,,2013-02-06 10:42:00,
2013-02-06 04:52:00,5.0,0.0,-100.00,ESE,122,2.0,4.0,81,0.00,,,0.00,0.000000,,2013-02-06 10:52:00,
2013-02-06 05:01:00,5.0,0.0,-100.00,ESE,122,2.0,4.0,81,0.00,,,0.00,0.000000,,2013-02-06 11:01:00,
2013-02-06 05:33:00,1.0,-4.0,-100.00,NNE,15,1.0,4.0,79,0.00,,,0.00,0.000000,,2013-02-06 11:33:00,
2013-02-06 05:42:00,1.0,-4.0,-100.00,NNE,15,1.0,4.0,79,0.00,,,0.00,0.000000,,2013-02-06 11:42:00,
2013-02-06 05:53:00,1.0,-4.0,-100.00,NNE,15,1.0,4.0,79,0.00,,,0.00,0.000000,,2013-02-06 11:53:00,
2013-02-06 06:02:00,1.0,-4.0,-100.00,NNE,15,1.0,4.0,79,0.00,,,0.00,0.000000,,2013-02-06 12:02:00,
2013-02-06 06:32:00,-3.0,-8.0,-100.00,NNE,20,1.0,3.0,78,0.00,,,0.00,0.000000,,2013-02-06 12:32:00,
2013-02-06 07:32:00,-1.0,-6.0,-100.00,East,97,2.0,3.0,77,-99.99,,,0.00,0.000000,,2013-02-06 13:32:00,
2013-02-06 07:42:00,-1.0,-6.0,-100.00,East,97,2.0,3.0,77,-99.99,,,0.00,0.000000,,2013-02-06 13:42:00,
2013-02-06 07:52:00,-1.0,-6.0,-100.00,East,97,2.0,3.0,77,-99.99,,,0.00,0.000000,,2013-02-06 13:52:00,
2013-02-06 08:02:00,-1.0,-6.0,-100.00,East,97,2.0,3.0,77,-99.99,,,0.00,0.000000,,2013-02-06 14:02:00,
2013-02-06 08:32:00,4.0,-1.0,-100.00,ESE,111,1.0,3.0,81,0.00,,,0.00,10.000000,,2013-02-06 14:32:00,
2013-02-06 08:42:00,4.0,-1.0,-100.00,ESE,111,1.0,3.0,81,0.00,,,0.00,10.000000,,2013-02-06 14:42:00,
2013-02-06 08:52:00,4.0,-1.0,-100.00,ESE,111,1.0,3.0,81,0.00,,,0.00,10.000000,,2013-02-06 14:52:00,
2013-02-06 09:01:00,4.0,-1.0,-100.00,ESE,111,1.0,3.0,81,0.00,,,0.00,10.000000,,2013-02-06 15:01:00,
2013-02-06 09:32:00,10.0,5.0,-100.00,ESE,122,4.0,7.0,81,0.00,,,0.00,47.000000,,2013-02-06 15:32:00,
2013-02-06 09:42:00,10.0,5.0,-100.00,ESE,122,4.0,7.0,81,0.00,,,0.00,47.000000,,2013-02-06 15:42:00,
2013-02-06 09:52:00,10.0,5.0,-100.00,ESE,122,4.0,7.0,81,0.00,,,0.00,47.000000,,2013-02-06 15:52:00,
2013-02-06 10:01:00,10.0,5.0,-100.00,ESE,122,4.0,7.0,81,0.00,,,0.00,47.000000,,2013-02-06 16:01:00,
2013-02-06 10:32:00,14.0,8.0,-100.00,SE,141,3.0,7.0,77,0.00,,,0.00,83.000000,,2013-02-06 16:32:00,
2013-02-06 10:42:00,14.0,8.0,-100.00,SE,141,3.0,7.0,77,0.00,,,0.00,83.000000,,2013-02-06 16:42:00,
2013-02-06 10:52:00,14.0,8.0,-100.00,SE,141,3.0,7.0,77,0.00,,,0.00,83.000000,,2013-02-06 16:52:00,
2013-02-06 11:02:00,14.0,8.0,-100.00,SE,141,3.0,7.0,77,0.00,,,0.00,83.000000,,2013-02-06 17:02:00,
2013-02-06 11:32:00,17.0,12.0,-100.00,SSE,164,4.0,6.0,79,0.00,,,0.00,100.000000,,2013-02-06 17:32:00,
2013-02-06 11:42:00,17.0,12.0,-100.00,SSE,164,4.0,6.0,79,0.00,,,0.00,100.000000,,2013-02-06 17:42:00,
2013-02-06 11:52:00,17.0,12.0,-100.00,SSE,164,4.0,6.0,79,0.00,,,0.00,100.000000,,2013-02-06 17:52:00,
2013-02-06 12:01:00,17.0,12.0,-100.00,SSE,164,4.0,6.0,79,0.00,,,0.00,100.000000,,2013-02-06 18:01:00,
2013-02-06 12:33:00,16.0,11.0,-100.00,ESE,118,4.0,8.0,82,0.02,,,0.02,70.000000,,2013-02-06 18:33:00,
2013-02-06 12:42:00,16.0,11.0,-100.00,ESE,118,4.0,8.0,82,0.02,,,0.02,70.000000,,2013-02-06 18:42:00,
2013-02-06 12:52:00,16.0,11.0,-100.00,ESE,118,4.0,8.0,82,0.02,,,0.02,70.000000,,2013-02-06 18:52:00,
2013-02-06 13:01:00,16.0,11.0,-100.00,ESE,118,4.0,8.0,82,0.02,,,0.02,70.000000,,2013-02-06 19:01:00,
2013-02-06 13:32:00,18.0,14.0,-100.00,ESE,102,6.0,10.0,85,0.04,,,0.06,69.000000,,2013-02-06 19:32:00,
2013-02-06 13:42:00,18.0,14.0,-100.00,ESE,102,6.0,10.0,85,0.04,,,0.06,69.000000,,2013-02-06 19:42:00,
2013-02-06 13:52:00,18.0,14.0,-100.00,ESE,102,6.0,10.0,85,0.04,,,0.06,69.000000,,2013-02-06 19:52:00,
2013-02-06 14:01:00,18.0,14.0,-100.00,ESE,102,6.0,10.0,85,0.04,,,0.06,69.000000,,2013-02-06 20:01:00,
2013-02-06 14:32:00,19.0,15.0,-100.00,East,90,6.0,10.0,84,0.01,,,0.07,91.000000,,2013-02-06 20:32:00,
2013-02-06 14:42:00,19.0,15.0,-100.00,East,90,6.0,10.0,84,0.01,,,0.07,91.000000,,2013-02-06 20:42:00,
2013-02-06 14:52:00,19.0,15.0,-100.00,East,90,6.0,10.0,84,0.01,,,0.07,91.000000,,2013-02-06 20:52:00,
2013-02-06 15:02:00,19.0,15.0,-100.00,East,90,6.0,10.0,84,0.01,,,0.07,91.000000,,2013-02-06 21:02:00,
2013-02-06 15:32:00,20.0,16.0,-100.00,East,88,7.0,12.0,85,0.02,,,-99.99,63.000000,,2013-02-06 21:32:00,
2013-02-06 15:42:00,20.0,16.0,-100.00,East,88,7.0,12.0,85,0.02,,,-99.99,63.000000,,2013-02-06 21:42:00,
2013-02-06 15:52:00,20.0,16.0,-100.00,East,88,7.0,12.0,85,0.02,,,-99.99,63.000000,,2013-02-06 21:52:00,
2013-02-06 16:01:00,20.0,16.0,-100.00,East,88,7.0,12.0,85,0.02,,,-99.99,63.000000,,2013-02-06 22:01:00,
2013-02-06 16:32:00,20.0,16.0,-100.00,East,85,5.0,11.0,83,0.00,,,0.09,45.000000,,2013-02-06 22:32:00,
2013-02-06 16:42:00,20.0,16.0,-100.00,East,85,5.0,11.0,83,0.00,,,0.09,45.000000,,2013-02-06 22:42:00,
2013-02-06 16:52:00,20.0,16.0,-100.00,East,85,5.0,11.0,83,0.00,,,0.09,45.000000,,2013-02-06 22:52:00,
2013-02-06 17:01:00,20.0,16.0,-100.00,East,85,5.0,11.0,83,0.00,,,0.09,45.000000,,2013-02-06 23:01:00,
2013-02-06 17:32:00,21.0,16.0,-100.00,ESE,103,5.0,9.0,82,0.00,,,0.09,15.000000,,2013-02-06 23:32:00,
2013-02-06 17:42:00,21.0,16.0,-100.00,ESE,103,5.0,9.0,82,0.00,,,0.09,15.000000,,2013-02-06 23:42:00,
2013-02-06 17:52:00,21.0,16.0,-100.00,ESE,103,5.0,9.0,82,0.00,,,0.09,15.000000,,2013-02-06 23:52:00,
2013-02-06 18:01:00,21.0,16.0,-100.00,ESE,103,5.0,9.0,82,0.00,,,0.09,15.000000,,2013-02-07 00:01:00,
2013-02-06 18:32:00,21.0,17.0,-100.00,ENE,74,4.0,8.0,83,0.00,,,0.09,1.000000,,2013-02-07 00:32:00,
2013-02-06 18:42:00,21.0,17.0,-100.00,ENE,74,4.0,8.0,83,0.00,,,0.09,1.000000,,2013-02-07 00:42:00,
2013-02-06 18:52:00,21.0,17.0,-100.00,ENE,74,4.0,8.0,83,0.00,,,0.09,1.000000,,2013-02-07 00:52:00,
2013-02-06 19:01:00,21.0,17.0,-100.00,ENE,74,4.0,8.0,83,0.00,,,0.09,1.000000,,2013-02-07 01:01:00,
2013-02-06 19:32:00,21.0,17.0,-100.00,ENE,60,5.0,7.0,83,0.00,,,0.09,0.000000,,2013-02-07 01:32:00,
2013-02-06 19:42:00,21.0,17.0,-100.00,ENE,60,5.0,7.0,83,0.00,,,0.09,0.000000,,2013-02-07 01:42:00,
2013-02-06 19:52:00,21.0,17.0,-100.00,ENE,60,5.0,7.0,83,0.00,,,0.09,0.000000,,2013-02-07 01:52:00,
2013-02-06 20:01:00,21.0,17.0,-100.00,ENE,60,5.0,7.0,83,0.00,,,0.09,0.000000,,2013-02-07 02:01:00,
2013-02-06 20:32:00,21.0,17.0,-100.00,ENE,57,5.0,8.0,84,0.00,,,0.09,0.000000,,2013-02-07 02:32:00,
2013-02-06 20:42:00,21.0,17.0,-100.00,ENE,57,5.0,8.0,84,0.00,,,0.09,0.000000,,2013-02-07 02:42:00,
2013-02-06 20:52:00,21.0,17.0,-100.00,ENE,57,5.0,8.0,84,0.00,,,0.09,0.000000,,2013-02-07 02:52:00,
2013-02-06 21:02:00,21.0,17.0,-100.00,ENE,57,5.0,8.0,84,0.00,,,0.09,0.000000,,2013-02-07 03:02:00,
2013-02-06 21:32:00,21.0,17.0,-100.00,ENE,58,4.0,7.0,84,0.00,,,0.09,0.000000,,2013-02-07 03:32:00,
2013-02-06 21:42:00,21.0,17.0,-100.00,ENE,58,4.0,7.0,84,0.00,,,0.09,0.000000,,2013-02-07 03:42:00,
2013-02-06 21:52:00,21.0,17.0,-100.00,ENE,58,4.0,7.0,84,0.00,,,0.09,0.000000,,2013-02-07 03:52:00,
2013-02-06 22:01:00,21.0,17.0,-100.00,ENE,58,4.0,7.0,84,0.00,,,0.09,0.000000,,2013-02-07 04:01:00,
2013-02-06 22:32:00,22.0,18.0,-100.00,NE,46,6.0,9.0,85,0.00,,,0.09,0.000000,,2013-02-07 04:32:00,
2013-02-06 22:42:00,22.0,18.0,-100.00,NE,46,6.0,9.0,85,0.00,,,0.09,0.000000,,2013-02-07 04:42:00,
2013-02-06 22:53:00,22.0,18.0,-100.00,NE,46,6.0,9.0,85,0.00,,,0.09,0.000000,,2013-02-07 04:53:00,
2013-02-06 23:02:00,22.0,18.0,-100.00,NE,46,6.0,9.0,85,0.00,,,0.09,0.000000,,2013-02-07 05:02:00,
2013-02-06 23:32:00,22.0,18.0,-100.00,NE,46,6.0,10.0,85,0.00,,,-99.99,0.000000,,2013-02-07 05:32:00,
2013-02-06 23:42:00,22.0,18.0,-100.00,NE,46,6.0,10.0,85,0.00,,,-99.99,0.000000,,2013-02-07 05:42:00,
2013-02-06 23:52:00,22.0,18.0,-100.00,NE,46,6.0,10.0,85,0.00,,,-99.99,0.000000,,2013-02-07 05:52:00,